World > North America > United States > California > La Jolla

La Jolla, CA Hourly Weather Conditions

Feedback E-mail the Weather

Quick WX

La Jolla, CA Weather Maps

°F °C°F °C
La Jolla Weather Map
UTC Time: 11/28/2022, 05:01
Your Time:

La Jolla, CA Regional Weather

Expires:202211280500;;925523
ASUS46 KSGX 280410
RWRSGX

SAN DIEGO HOURLY WEATHER ROUNDUP
NATIONAL WEATHER SERVICE SAN DIEGO CA
800 PM PST SUN NOV 27 2022

NOTE: "FAIR" INDICATES FEW OR NO CLOUDS BELOW 12,000 FEET WITH NO 
SIGNIFICANT WEATHER AND/OR OBSTRUCTIONS TO VISIBILITY.


CAZ042-043-060-061-PZZ750-775-280500-

GREATER SAN DIEGO AREA
  
CITY           SKY/WX    TMP DP  RH WIND       PRES   REMARKS
SAN DIEGO AP   MOCLDY    60  53  77 S6        30.04F                  
BROWN FIELD    PTCLDY    50  49  96 E3        30.03F                  
MIRAMAR MCAS   PTCLDY    50  48  93 S5        30.02F                  
MONTGOMERY FLD PTCLDY    54  51  90 CALM      30.03F                  
GILLESPIE FLD  CLEAR     54  48  82 CALM      30.04F                  

$$

NORTH SAN DIEGO COUNTY
  
CITY           SKY/WX    TMP DP  RH WIND       PRES   REMARKS
CAMP PENDLETON PTCLDY    52  48  86 E3        30.03F                  
OCEANSIDE AP   PTCLDY    49  45  86 CALM      30.01F                  
OCEANSIDE HBR    N/A     56  52  86 SW3       30.08F                  
VISTA            N/A     52  47  84 CALM      30.01F                  
CARLSBAD       PTCLDY    55  52  89 SE3       30.01F                  
ENCINITAS        N/A     54  51  90 CALM        N/A                   
LA JOLLA SCRIP   N/A     56  52  85 CALM      30.02F                  
FALLBROOK      FAIR      54  52  94 CALM      30.03F                  
ESCONDIDO        N/A     56  49  77 CALM      30.02F                  
SAN MARCOS       N/A     55  50  85 CALM      30.05F                  
RANCHO BERNARD   N/A     54  50  87 CALM      30.02F                  
POWAY            N/A     51  46  83 CALM      30.06F                  

$$

EAST SAN DIEGO COUNTY
  
CITY           SKY/WX    TMP DP  RH WIND       PRES   REMARKS
RAMONA         MOCLDY    46  40  79 CALM      30.02F                  
SANTEE           N/A     53  48  83 CALM      30.00F                  
LA MESA          N/A     53  50  90 CALM      29.98F                  
EL CAJON         N/A     52  48  86 CALM      29.91F                  
ALPINE           N/A     50  42  74 CALM      30.21F                  
DESCANSO N       N/A     44  28  53 N6        30.04F                  

$$

ORANGE COUNTY AND THE LOS ANGELES BASIN
  
CITY           SKY/WX    TMP DP  RH WIND       PRES   REMARKS
JOHN WAYNE AP  MOCLDY    61  53  75 E5        30.01S                  
LAGUNA BEACH     N/A     53  51  92 CALM      30.00F                  
LAKE FOREST FR   N/A     55  46  74 NE3       29.89S                  
SANTA ANA        N/A     58  55  89 SE1       30.00F                  
HUNTINGTON BCH   N/A     55  53  93 CALM      30.00S                  
LOS ALAMITOS   FAIR      55  53  95 SE3       29.98F                  
FULLERTON      MOCLDY    59  52  77 E3        30.00F                  
LONG BEACH     MOCLDY    60  52  74 CALM      30.00F HAZE             
L.A. AP        MOCLDY    59  56  89 CALM      30.01S                  
L.A. DOWNTOWN  PTCLDY    58  54  86 CALM      30.01S                  

$$

THE INLAND EMPIRE
  
CITY           SKY/WX    TMP DP  RH WIND       PRES   REMARKS
CORONA         MOCLDY    56  49  77 CALM      30.01S                  
UPLAND AP      FAIR      59  37  44 NW6       30.00F                  
CHINO          MOCLDY    56  46  69 SE3       30.01S                  
ONTARIO        MOCLDY    58  46  64 VRB5      30.00S                  
SAN BERNARDINO CLEAR     54  30  40 CALM      30.02S                  
RIVERSIDE AP   MOCLDY    57  42  57 S6        30.01S                  
MORENO VALLEY    N/A     58  35  43 CALM      29.95S                  
MARCH ARB      MOCLDY    54  37  53 CALM      30.01F                  
HORSETHIEF CYN   N/A     54  37  52 CALM      30.01R                  
PERRIS           N/A     56  41  56 CALM      30.05S                  
LAKE ELSINORE    N/A     55  46  71 CALM      29.96S                  
HEMET AP       FAIR      52  34  51 W6        30.03S                  
FRENCH VALLEY  FAIR      52  43  71 CALM      30.03S                  
TEMECULA         N/A     55  47  77 CALM      30.06R                  

$$

SAN BERNARDINO AND RIVERSIDE COUNTY MOUNTAINS
  
CITY           SKY/WX    TMP DP  RH WIND       PRES   REMARKS
BIG BEAR AP    MOCLDY    34  19  55 SW3       30.12S                  
BIG BEAR LAKE    N/A     33  21  62 CALM      30.14F                  
WRIGHTWOOD       N/A     41  20  43 CALM      30.10S                  
ANGELUS OAKS     N/A     40  24  52 CALM      29.98S                  
IDYLLWILD        N/A     38  25  58 CALM      30.00S                  
TORO PEAK        N/A     46 -16   7 S24         N/A                   

$$

SOUTHERN DESERT INCLUDING THE COACHELLA VALLEY
  
CITY           SKY/WX    TMP DP  RH WIND       PRES   REMARKS
PALM SPRINGS   MOCLDY    58  30  34 NW7       30.01F                  
INDIO            N/A     59  34  39 CALM      29.98F                  
THERMAL        MOCLDY    53  32  44 N5        29.98F                  
BORREGO AP     FAIR      50  19  29 CALM      29.99F                  
OCOTILLO WELLS   N/A     57  26  30 N1        29.95F                  
CANEBRAKE        N/A     57  25  29 SW1       29.97F                  
BLYTHE         PTCLDY    51  23  33 NW5       30.00F                  
IMPERIAL AP    PTCLDY    58  30  34 SE3       29.98S                  
EL CENTRO NAS  PTCLDY   N/A N/A N/A SW6       30.00S                  
YUMA AZ        PTCLDY    57  27  31 CALM      30.00S                  

$$

UPPER DESERT
  
CITY           SKY/WX    TMP DP  RH WIND       PRES   REMARKS
VICTORVILLE AP MOCLDY    48  23  37 S7        30.04S                  
HESPERIA         N/A     55  25  32 SW3       29.82F                  
APPLE VALLEY     N/A     44  27  51 CALM      30.09S                  
PALMDALE       MOCLDY    57  29  34 NW3       30.00F                  
LANCASTER      MOCLDY    57  32  38 W14       30.00F                  
EDWARDS AFB    CLOUDY    53  26  35 W13       29.96F                  
DAGGETT        PTCLDY    50  18  28 CALM      29.99F                  
29 PALMS N     PTCLDY    50  24  36 S5        30.07F                  
29 PALMS JTNP    N/A     52  25  35 CALM      29.95F                  
NEEDLES        PTCLDY    54  25  32 SW9       30.00F                  

$$

REGIONAL REPORTS
  
CITY           SKY/WX    TMP DP  RH WIND       PRES   REMARKS
SANTA BARBARA  MOCLDY    52  47  83 N3        29.99S                  
SANDBERG       MOCLDY    51  16  24 W12       30.07F                  
LAS VEGAS NV   MOCLDY    50  25  37 W5        30.00S                  
PHOENIX AZ     PTCLDY    56  24  29 CALM      30.01F                  
TIJUANA        CLEAR     55  54  94 CALM      30.05F                  
ENSENADA NW      N/A     56  32  40 N3        29.99F                  

$$

OFFSHORE ISLANDS
  
CITY           SKY/WX    TMP DP  RH WIND       PRES   REMARKS
CATALINA ARPT  NOT AVBL                                               
SAN CLEMENTE I CLOUDY    55  32  41 S3        30.03S                  
SAN NICOLAS IS MOCLDY    52  51  97 W6        30.00S                  

$$

MARINE AND OFFSHORE BUOY REPORTS
  
STATION/POSITION SKY/WX   TEMP    WIND        PRES    VSBY  SWELL
                          AIR SEA DIR/SP/G                  HT/PER/DIR
                          (F)     (DE
690
G/KT/KT) (MB)    (MI)  (FT/S/D)
TANNER BANKS               57     310/ 10/ 12 1015.7S         8/300/14
S CLEMENTE BASIN           59 62  240/  4/  6 1016.0F         5/270/13
SAN NICOLAS IS.               58                N/A           5/300/13
SO. S. ROSA ISLA           56 59  290/ 14/ 16 1016.0R         7/300/11
W. S. BARBARA CH           57 59  310/ 14/ 16 1015.2F         7/310/13
M. S. BARBARA CH           58     240/  8/ 10 1015.2F         3/270/ 9
S. MONICA BASIN            59 62  330/  2/  4 1016.1F         3/210/14
S PEDRO CHANNEL               63                N/A           2/270/12
OCEANSIDE OFFSHR              62                N/A           2/210/14
TORREY PINES OTR              61                N/A           2/260/13
SAN DIEGO BAY                 62              1016.9F
IMPERIAL BEACH                60                N/A           2/260/13
POINT LOMA SOUTH              62                N/A           3/260/13

$$

  

SKY/WX - Weather  TMP - Temperature  DP - Dew Point  RH - Humidity
WIND - Wind Direction/Speed PRES - Barometric Pressure VSB - Visibility
WCI - Wind Chill Index E13G22 Wind - East Wind 13 mph/Gusts of 22 mph

Trending Headlines

Trending Entertainment Headlines

La Jolla Radar Loop

Use the map search tool if you want to place a location marker on the radar map...

La Jolla Quick Facts

National Two Day Weather Forecast


E-mail the La Jolla Weather Forecast

Voice your opinion or tell us about page issues...